2024/02/11 00:00:00,50.9,-1.6
2024/02/11 00:10:00,50.8,-1.6
2024/02/11 00:20:00,50.8,-1.6
2024/02/11 00:30:00,---,-1.3
2024/02/11 00:40:00,50.6,-1.4
2024/02/11 00:50:00,50.8,-1.4
2024/02/11 01:00:00,51.9,-1.4
2024/02/11 01:10:00,52.7,-1.5
2024/02/11 01:20:00,53.1,-1.4
2024/02/11 01:30:00,53.4,-1.5
2024/02/11 01:40:00,53.4,-0.8
2024/02/11 01:50:00,53.3,-1.6
2024/02/11 02:00:00,53.4,-1.2
2024/02/11 02:10:00,53.3,-1.5
2024/02/11 02:20:00,53.4,-1.5
2024/02/11 02:30:00,53.4,-1.5
2024/02/11 02:40:00,53.4,-1.6
2024/02/11 02:50:00,53.7,-1.5
2024/02/11 03:00:00,54.0,-1.5
2024/02/11 03:10:00,55.2,-1.6
2024/02/11 03:20:00,55.7,-1.6
2024/02/11 03:30:00,55.8,-1.4
2024/02/11 03:40:00,55.6,-1.6
2024/02/11 03:50:00,55.6,-1.6
2024/02/11 04:00:00,55.8,-1.7
2024/02/11 04:10:00,56.0,-1.8
2024/02/11 04:20:00,55.8,-1.5
2024/02/11 04:30:00,55.9,-1.5
2024/02/11 04:40:00,56.0,-1.8
2024/02/11 04:50:00,56.5,-1.5
2024/02/11 05:00:00,57.3,-1.5
2024/02/11 05:10:00,57.5,-1.5
2024/02/11 05:20:00,58.0,-1.6
2024/02/11 05:30:00,58.3,-1.4
2024/02/11 05:40:00,58.3,-1.5
2024/02/11 05:50:00,58.4,-1.6
2024/02/11 06:00:00,58.4,-1.5
2024/02/11 06:10:00,58.4,-1.3
2024/02/11 06:20:00,58.3,-1.3
2024/02/11 06:30:00,58.3,-1.1
2024/02/11 06:40:00,58.4,-1.2
2024/02/11 06:50:00,58.5,-1.2
2024/02/11 07:00:00,59.1,-1.3
2024/02/11 07:10:00,59.3,-1.2
2024/02/11 07:20:00,59.3,-1.2
2024/02/11 07:30:00,59.3,-1.2
2024/02/11 07:40:00,59.4,-1.2
2024/02/11 07:50:00,59.6,-0.9
2024/02/11 08:00:00,59.5,-0.8
2024/02/11 08:10:00,59.1,-0.7
2024/02/11 08:20:00,59.0,-0.4
2024/02/11 08:30:00,58.3,-0.3
2024/02/11 08:40:00,---,-0.2
2024/02/11 08:50:00, 0.0, 0.1
2024/02/11 09:00:00,---, 0.7
2024/02/11 09:10:00,15.1, 1.5
2024/02/11 09:20:00, 0.0, 1.7
2024/02/11 09:30:00, 0.0, 2.1
2024/02/11 09:40:00,---, 5.8
2024/02/11 09:50:00,---, 7.5
2024/02/11 10:00:00, 0.0, 5.8
2024/02/11 10:10:00, 0.0, 4.2
2024/02/11 10:20:00,---, 5.8
2024/02/11 10:30:00, 0.0, 7.2
2024/02/11 10:40:00, 0.0, 9.3
2024/02/11 10:50:00, 0.0, 7.9
2024/02/11 11:00:00, 0.0, 7.9
2024/02/11 11:10:00, 0.0, 9.7
2024/02/11 11:20:00, 0.0, 9.9
2024/02/11 11:30:00, 0.0,10.0
2024/02/11 11:40:00, 0.0, 9.3
2024/02/11 11:50:00, 0.0, 7.9
2024/02/11 12:00:00,---, 8.5
2024/02/11 12:10:00, 0.0, 7.0
2024/02/11 12:20:00, 0.0, 5.3
2024/02/11 12:30:00, 0.0, 5.6
2024/02/11 12:40:00, 0.0, 7.0
2024/02/11 12:50:00, 0.0, 9.1
2024/02/11 13:00:00, 0.0, 8.6
2024/02/11 13:10:00,---, 8.8
2024/02/11 13:20:00, 0.0,12.0
2024/02/11 13:30:00, 0.0, 7.6
2024/02/11 13:40:00, 0.0, 5.6
2024/02/11 13:50:00,---, 6.5
2024/02/11 14:00:00, 0.0, 5.8
2024/02/11 14:10:00, 0.0, 5.5
2024/02/11 14:20:00, 0.0, 5.4
2024/02/11 14:30:00, 0.0, 4.3
2024/02/11 14:40:00, 0.0, 5.4
2024/02/11 14:50:00, 0.0, 4.7
2024/02/11 15:00:00, 0.0, 4.8
2024/02/11 15:10:00, 0.0, 4.4
2024/02/11 15:20:00, 0.0, 3.9
2024/02/11 15:30:00, 0.0, 2.9
2024/02/11 15:40:00, 0.0, 2.5
2024/02/11 15:50:00, 0.0, 2.1
2024/02/11 16:00:00, 0.0, 2.0
2024/02/11 16:10:00, 0.0, 1.7
2024/02/11 16:20:00, 0.0, 1.6
2024/02/11 16:30:00, 0.0, 1.2
2024/02/11 16:40:00, 0.0, 1.0
2024/02/11 16:50:00, 0.0, 0.9
2024/02/11 17:00:00, 0.0, 0.6
2024/02/11 17:10:00, 0.0, 0.5
2024/02/11 17:20:00, 0.0, 0.1
2024/02/11 17:30:00,---, 0.4
2024/02/11 17:40:00,136.2, 0.1
2024/02/11 17:50:00,---,-0.1
2024/02/11 18:00:00,135.8, 0.3
2024/02/11 18:10:00,135.9,-0.3
2024/02/11 18:20:00,135.6, 0.1
2024/02/11 18:30:00,135.5,-0.2
2024/02/11 18:40:00,135.4,-0.1
2024/02/11 18:50:00,135.5,-0.3
2024/02/11 19:00:00,135.7,-0.2
2024/02/11 19:10:00,---,-0.4
2024/02/11 19:20:00,---,-0.4
2024/02/11 19:30:00,135.6,-0.2
2024/02/11 19:40:00,135.5,-0.2
2024/02/11 19:50:00,---,-0.4
2024/02/11 20:00:00, 0.0,-0.2
2024/02/11 20:10:00,135.9,-0.4
2024/02/11 20:20:00,136.3,-0.7
2024/02/11 20:30:00,136.4,-0.7
2024/02/11 20:40:00,111.9,-0.8
2024/02/11 20:50:00,111.6,-0.9
2024/02/11 21:00:00,111.6,-0.9
2024/02/11 21:10:00,111.6,-0.7
2024/02/11 21:20:00,111.5,-0.7
2024/02/11 21:30:00,---,-0.7
2024/02/11 21:40:00,95.0,-0.6
2024/02/11 21:50:00,103.3,-1.0
2024/02/11 22:00:00,135.8,-0.8
2024/02/11 22:10:00,111.2,-0.9
2024/02/11 22:20:00,135.5,-1.0
2024/02/11 22:30:00,135.5,-1.1
2024/02/11 22:40:00,135.5,-1.3
2024/02/11 22:50:00,---,-1.7
2024/02/11 23:00:00,138.0,-1.6
2024/02/11 23:10:00,138.7,-1.6
2024/02/11 23:20:00,139.8,-1.6
2024/02/11 23:30:00,141.0,-1.5
2024/02/11 23:40:00,142.6,-1.4
2024/02/11 23:50:00,143.0,-1.6
